IZMIR/ADNAN_MENDERE current weather conditions

sailwx.info

Wind from 360 at 13 knots

Air temperature 10.0° C
Visibility: greater than 5.4 NM
Dewpoint -2.0° C

Last reported at 2020-Jan-22 12:50 UTC.
Time now 2020-Jan-22 13:36 UTC

Location: N 38°16' E 027°09'.
View on Google Maps.

See reports from other nearby stations

  
Tides and Currents Weather Stations Pressure Air Temp Water Temp Dewpoint Dewpoint Depression Visibility Wind Speed Wind Dir Waves Ship Positions
date/time (UTC)wind fromknots sea level pressurealtimeterstation pressurevisibilityair tempwater tempwave heightnotes
2020-Jan-22 12:50 360 13 5.410.0
2020-Jan-22 12:20 360 15 5.410.0
2020-Jan-22 11:50 360 15 5.410.0
2020-Jan-22 11:20 350 14 5.410.0
2020-Jan-22 10:50 350 13 5.4 9.0
2020-Jan-22 10:20 340 12 5.4 8.0
2020-Jan-22 09:50 350 12 5.4 8.0
2020-Jan-22 09:20 360 11 5.4 7.0
2020-Jan-22 08:50 360 12 5.4 6.0
2020-Jan-22 08:20 360 11 5.4 6.0
2020-Jan-22 07:50 350 12 5.4 5.0
2020-Jan-22 07:20 010 12 5.4 4.0
2020-Jan-22 06:50 010 12 5.4 3.0
2020-Jan-22 06:20 010 9 5.4 2.0
2020-Jan-22 05:50 010 13 5.4 2.0
2020-Jan-22 05:20 010 13 5.4 2.0
2020-Jan-22 04:50 360 12 5.4 2.0
2020-Jan-22 04:20 010 11 5.4 1.0
2020-Jan-22 03:50 010 8 5.4 1.0
2020-Jan-22 03:20 360 14 5.4 2.0
2020-Jan-22 02:50 350 14 5.4 2.0
2020-Jan-22 02:20 350 15 5.4 2.0
2020-Jan-22 01:50 010 11 5.4 2.0
2020-Jan-22 01:20 010 11 5.4 1.0
2020-Jan-22 00:50 360 9 5.4 2.0
2020-Jan-22 00:20 030 6 5.4 2.0
2020-Jan-21 23:50 360 13 5.4 2.0
2020-Jan-21 23:20 010 13 5.4 3.0
2020-Jan-21 22:50 350 17 5.4 3.0
2020-Jan-21 22:20 350 15 5.4 3.0
2020-Jan-21 21:50 350 13 5.4 3.0
2020-Jan-21 21:20 350 15 5.4 3.0
2020-Jan-21 20:50 350 15 5.4 3.0
2020-Jan-21 20:20 350 15 5.4 3.0
2020-Jan-21 19:50 350 15 5.4 4.0
2020-Jan-21 19:20 360 20 5.4 4.0
2020-Jan-21 18:50 360 20 5.4 4.0
2020-Jan-21 18:34 010 15 gusting 26 5.4 4.0
2020-Jan-21 18:20 360 13 5.4 3.0
2020-Jan-21 17:50 010 15 5.4 4.0
2020-Jan-21 17:20 010 14 5.4 4.0
2020-Jan-21 16:50 360 20 5.4 4.0
2020-Jan-21 16:20 360 18 5.4 4.0
2020-Jan-21 15:50 360 18 5.4 4.0
2020-Jan-21 15:20 010 15 5.4 5.0
2020-Jan-21 14:50 360 18 5.4 5.0
2020-Jan-21 14:20 010 22 5.4 6.0
2020-Jan-21 13:50 010 21 5.4 6.0
2020-Jan-21 13:20 010 25 5.4 7.0
2020-Jan-21 12:50 010 25 5.4 7.0
2020-Jan-21 12:20 010 24 5.4 8.0
2020-Jan-21 11:50 360 22 5.4 7.0
2020-Jan-21 11:20 360 24 5.4 7.0
2020-Jan-21 10:50 010 22 5.4 7.0
2020-Jan-21 10:20 010 22 5.4 7.0
2020-Jan-21 09:50 010 21 5.4 7.0
2020-Jan-21 09:20 010 20 5.4 7.0
2020-Jan-21 08:50 360 24 5.4 6.0
2020-Jan-21 08:20 360 24 5.4 6.0
2020-Jan-21 07:50 360 20 5.4 6.0
2020-Jan-21 07:20 360 19 5.4 5.0
2020-Jan-21 06:50 010 17 5.4 5.0
2020-Jan-21 06:20 010 20 5.4 4.0
2020-Jan-21 05:50 010 18 5.4 4.0
2020-Jan-21 05:20 010 20 5.4 4.0
2020-Jan-21 04:50 360 21 5.4 4.0
2020-Jan-21 04:20 360 22 5.4 4.0
2020-Jan-21 03:50 360 20 5.4 4.0
2020-Jan-21 03:20 350 17 5.4 3.0
2020-Jan-21 02:50 360 19 5.4 3.0
2020-Jan-21 02:20 360 18 5.4 3.0
2020-Jan-21 01:50 360 15 5.4 3.0
2020-Jan-21 01:20 350 20 5.4 4.0
2020-Jan-21 00:50 350 15 5.4 3.0
2020-Jan-21 00:20 360 17 5.4 4.0
2020-Jan-20 23:50 010 17 5.4 4.0
2020-Jan-20 23:20 010 18 5.4 4.0
2020-Jan-20 22:50 360 21 gusting 34 5.4 4.0
2020-Jan-20 22:20 360 19 gusting 29 5.4 5.0
2020-Jan-20 21:50 010 20 5.4 5.0
2020-Jan-20 21:20 010 17 5.4 5.0
2020-Jan-20 20:50 010 13 5.4 5.0
2020-Jan-20 20:20 360 12 5.4 5.0
2020-Jan-20 19:50 010 13 5.4 5.0
2020-Jan-20 19:20 020 15 5.4 5.0
2020-Jan-20 18:50 010 17 5.4 5.0
2020-Jan-20 18:20 010 18 5.4 6.0
2020-Jan-20 17:50 020 15 5.4 6.0
2020-Jan-20 17:20 020 14 5.4 6.0
2020-Jan-20 16:50 020 14 5.4 6.0
2020-Jan-20 16:20 010 13 5.4 6.0
2020-Jan-20 15:50 360 13 5.4 6.0
2020-Jan-20 15:20 010 14 5.4 6.0
2020-Jan-20 15:10 010 17 gusting 28 5.4 7.0
2020-Jan-20 14:50 020 9 5.4 7.0
2020-Jan-20 14:20 010 17 gusting 27 5.4 7.0
2020-Jan-20 14:05 020 17 gusting 27 5.4 8.0
2020-Jan-20 13:50 030 15 5.4 8.0
2020-Jan-20 13:20 030 18 5.4 8.0